Weather at Châtillon Sur Seine Airfield

Public forecast

Using degrees Celsius for public forecast. Weather courtesy of forecast.io.

Closest aviation weather report (METAR) to Châtillon Sur Seine Airfield

Closest report is Troyes-Barberey Airport, 36.5 nm (67.7 km) NW. Retrieved 2020/09/27 02:30 UTC (15 minutes ago):

LFQB 270230Z AUTO 29018KT 6000 RA BKN010 OVC015 11/10 Q1003

Closest aviation forecast (TAF) to Châtillon Sur Seine Airfield

Forecast is more than 12 hours old.

Closest forecast is Dijon-Bourgogne Airport, 40.2 nm (74.5 km) SSE. Retrieved 2015/06/01 00:11 UTC (5 years ago):

TAF LFSD 010600Z 0100/0124 CNL